This demonstration page uses our WeatherBlox Daily Observations layout. Learn more.

Left ArrowRight Arrow

47.50024, -111.30081

Hourly Observations for May 1, 2019

Temp ( °F °C ) Dew Point ( °F °C ) Humidity (%) Winds ( mph kmh ) Pressure ( in mb ) Visibility ( mi km ) Precip ( " mm )
12:53 am 00:53 Clear 25 -3.9 19 -7.2 78 78 WSW 5 7 30.19 1023 10 16 0.00 0.00
1:53 am 01:53 Clear 22 -5.6 19 -7.2 89 89 SSW 5 7 30.19 1022 10 16 0.00 0.00
2:53 am 02:53 Clear 20 -6.7 17 -8.3 89 89 SW 6 9 30.19 1022 10 16 0.00 0.00
3:53 am 03:53 Clear 20 -6.7 18 -7.8 92 92 SSW 8 13 30.18 1022 10 16 0.00 0.00
4:53 am 04:53 Clear 19 -7.2 16 -8.9 88 88 Calm 30.18 1022 10 16 0.00 0.00
5:53 am 05:53 Clear 21 -6.1 17 -8.3 85 85 S 8 13 30.16 1022 10 16 0.00 0.00
6:53 am 06:53 Sunny 26 -3.3 21 -6.1 81 81 S 7 11 30.16 1021 10 16 0.00 0.00
7:53 am 07:53 Sunny 31 -0.6 24 -4.4 76 76 SSW 9 15 30.14 1021 10 16 0.00 0.00
8:53 am 08:53 Sunny 37 2.8 21 -6.1 52 52 S 13 20 30.13 1020 10 16 0.00 0.00
9:53 am 09:53 Sunny 42 5.6 16 -8.9 35 35 SSW 15 24 30.10 1019 10 16 0.00 0.00
10:53 am 10:53 Sunny 45 7.2 17 -8.3 33 33 SSW 18 30 30.07 1018 10 16 0.00 0.00
11:53 am 11:53 Sunny 47 8.3 14 -10 26 26 SSW 15 24 30.05 1018 10 16 0.00 0.00
12:53 pm 12:53 Mostly Sunny 51 10.6 17 -8.3 26 26 SSW 14 22 30.02 1017 10 16 0.00 0.00
1:53 pm 13:53 Mostly Cloudy 51 10.6 17 -8.3 26 26 WSW 14 22 30.00 1016 10 16 0.00 0.00
2:53 pm 14:53 Mostly Cloudy 51 10.6 16 -8.9 25 25 WSW 22 35 29.99 1016 10 16 0.00 0.00
3:53 pm 15:53 Cloudy 47 8.3 20 -6.7 34 34 WNW 23 37 30.01 1016 10 16 0.00 0.00
4:53 pm 16:53 Partly Cloudy 51 10.6 16 -8.9 25 25 WNW 5 7 29.99 1016 10 16 0.00 0.03
5:53 pm 17:53 Partly Cloudy 50 10 15 -9.4 25 25 WSW 20 31 29.98 1015 10 16 0.00 0.00
6:53 pm 18:53 Sunny 48 8.9 18 -7.8 30 30 W 14 22 29.98 1015 10 16 0.00 0.00
7:53 pm 19:53 Sunny 47 8.3 20 -6.7 34 34 WSW 15 24 29.96 1015 10 16 0.00 0.00
8:53 pm 20:53 Mostly Clear 44 6.7 22 -5.6 41 41 WSW 10 17 29.96 1014 10 16 0.00 0.00
9:53 pm 21:53 Partly Cloudy 42 5.6 24 -4.4 49 49 WSW 12 19 29.95 1014 10 16 0.00 0.00
10:53 pm 22:53 Mostly Clear 41 5 24 -4.4 51 51 SW 12 19 29.94 1014 10 16 0.00 0.00
11:53 pm 23:53 Mostly Clear 37 2.8 25 -3.9 62 62 SSW 8 13 29.94 1014 10 16 0.00 0.00

Powered by AerisWeather